| time (UTC) | temp F | wind direction | speed MPH | gust MPH | rain 1hr in | rain 24hr in | rain mn in | humidity % | barometer mb |
| 20260507062446 | 48 | 26 | 3.0 | 5.0 | 0.00 | 0.00 | 0.00 | 87 | 1015.3 |
| 20260507061944 | 47 | 310 | 2.0 | 5.0 | 0.00 | 0.00 | 0.00 | 88 | 1015.2 |
| 20260507061716 | 47 | 317 | 2.0 | 5.0 | 0.00 | 0.00 | 0.00 | 88 | 1015.2 |
| 20260507060945 | 47 | 34 | 2.0 | 5.0 | 0.00 | 0.00 | 0.00 | 88 | 1015.1 |
| 20260507060445 | 47 | 304 | 3.0 | 7.0 | 0.00 | 0.00 | 0.00 | 88 | 1015.2 |
| 20260507055945 | 46 | 329 | 2.0 | 7.0 | 0.00 | 0.00 | 0.00 | 89 | 1015.1 |
| 20260507055447 | 46 | 344 | 3.0 | 5.0 | 0.00 | 0.00 | 0.00 | 89 | 1015.0 |
| 20260507055215 | 46 | 333 | 2.0 | 5.0 | 0.00 | 0.00 | 0.00 | 89 | 1015.0 |
| 20260507054445 | 46 | 313 | 1.0 | 4.0 | 0.00 | 0.00 | 0.00 | 89 | 1015.0 |
| 20260507053943 | 45 | 292 | 2.0 | 4.0 | 0.00 | 0.00 | 0.00 | 89 | 1014.9 |
| 20260507053443 | 45 | 340 | 2.0 | 4.0 | 0.00 | 0.00 | 0.00 | 89 | 1015.0 |
| 20260507052942 | 45 | 350 | 2.0 | 4.0 | 0.00 | 0.00 | 0.00 | 89 | 1014.9 |
| 20260507052442 | 45 | 346 | 2.0 | 4.0 | 0.00 | 0.00 | 0.00 | 90 | 1014.9 |
| 20260507051946 | 44 | 300 | 3.0 | 5.0 | 0.00 | 0.00 | 0.00 | 90 | 1014.8 |
| 20260507051439 | 44 | 308 | 3.0 | 5.0 | 0.00 | 0.00 | 0.00 | 90 | 1014.9 |
| 20260507050941 | 44 | 348 | 3.0 | 5.0 | 0.00 | 0.00 | 0.00 | 90 | 1014.7 |
| 20260507050439 | 44 | 345 | 2.0 | 5.0 | 0.00 | 0.00 | 0.00 | 90 | 1014.6 |
| 20260507045940 | 44 | 339 | 2.0 | 3.0 | 0.00 | 0.00 | 0.00 | 90 | 1014.6 |
| 20260507045437 | 44 | 344 | 1.0 | 4.0 | 0.00 | 0.00 | 0.00 | 90 | 1014.6 |
| 20260507044937 | 43 | 0 | 0.0 | 4.0 | 0.00 | 0.00 | 0.00 | 90 | 1014.4 |
| 20260507044708 | 43 | 339 | 0.0 | 0.0 | 0.00 | 0.00 | 0.00 | 90 | 1014.5 |
| 20260507044209 | 43 | 355 | 1.0 | 3.0 | 0.00 | 0.00 | 0.00 | 90 | 1014.4 |
| 20260507043437 | 43 | 355 | 1.0 | 3.0 | 0.00 | 0.00 | 0.00 | 89 | 1014.4 |
| 20260507042936 | 43 | 319 | 2.0 | 3.0 | 0.00 | 0.00 | 0.00 | 89 | 1014.4 |
| 20260507042437 | 43 | 316 | 1.0 | 3.0 | 0.00 | 0.00 | 0.00 | 89 | 1014.3 |
| 20260507041437 | 44 | 309 | 1.0 | 2.0 | 0.00 | 0.00 | 0.00 | 89 | 1014.3 |
| 20260507040937 | 44 | 309 | 1.0 | 3.0 | 0.00 | 0.00 | 0.00 | 89 | 1014.3 |
| 20260507040437 | 44 | 323 | 2.0 | 3.0 | 0.00 | 0.00 | 0.00 | 89 | 1014.2 |
| 20260507035936 | 44 | 315 | 2.0 | 3.0 | 0.00 | 0.00 | 0.00 | 88 | 1014.2 |
| 20260507035437 | 44 | 317 | 2.0 | 3.0 | 0.00 | 0.00 | 0.00 | 88 | 1014.2 |
| 20260507034938 | 44 | 318 | 2.0 | 3.0 | 0.00 | 0.00 | 0.00 | 88 | 1014.1 |
| 20260507034438 | 44 | 335 | 2.0 | 3.0 | 0.00 | 0.00 | 0.00 | 88 | 1014.1 |
| 20260507033934 | 44 | 321 | 2.0 | 4.0 | 0.00 | 0.00 | 0.00 | 88 | 1014.2 |
| 20260507033435 | 44 | 330 | 2.0 | 4.0 | 0.00 | 0.00 | 0.00 | 87 | 1014.1 |
| 20260507032934 | 44 | 322 | 2.0 | 3.0 | 0.00 | 0.00 | 0.00 | 87 | 1014.1 |
| 20260507032433 | 45 | 316 | 2.0 | 3.0 | 0.00 | 0.00 | 0.00 | 87 | 1014.1 |
| 20260507031932 | 45 | 330 | 2.0 | 3.0 | 0.00 | 0.00 | 0.00 | 86 | 1014.1 |
| 20260507031434 | 45 | 334 | 1.0 | 3.0 | 0.00 | 0.00 | 0.00 | 86 | 1014.0 |
| 20260507030935 | 45 | 320 | 0.0 | 3.0 | 0.00 | 0.00 | 0.00 | 86 | 1014.0 |
| 20260507030434 | 45 | 306 | 0.0 | 0.0 | 0.00 | 0.00 | 0.00 | 85 | 1014.0 |
| 20260507025932 | 45 | 337 | 1.0 | 3.0 | 0.00 | 0.00 | 0.00 | 85 | 1014.0 |
| 20260507025702 | 46 | 333 | 2.0 | 4.0 | 0.00 | 0.00 | 0.00 | 84 | 1013.9 |
| 20260507024929 | 46 | 321 | 2.0 | 4.0 | 0.00 | 0.00 | 0.00 | 84 | 1013.9 |
| 20260507024701 | 46 | 325 | 2.0 | 3.0 | 0.00 | 0.00 | 0.00 | 84 | 1014.0 |
| 20260507023930 | 46 | 312 | 1.0 | 3.0 | 0.00 | 0.00 | 0.00 | 83 | 1013.9 |
| 20260507023430 | 46 | 325 | 1.0 | 3.0 | 0.00 | 0.00 | 0.00 | 83 | 1013.9 |
| 20260507022926 | 46 | 5 | 1.0 | 4.0 | 0.00 | 0.00 | 0.00 | 83 | 1013.9 |
| 20260507022428 | 47 | 355 | 2.0 | 4.0 | 0.00 | 0.00 | 0.00 | 83 | 1013.9 |
| 20260507022211 | 47 | 306 | 3.0 | 5.0 | 0.00 | 0.00 | 0.00 | 83 | 1013.8 |
| 20260507021422 | 47 | 338 | 3.0 | 5.0 | 0.00 | 0.00 | 0.00 | 83 | 1013.7 |
| 20260507021151 | 47 | 5 | 2.0 | 6.0 | 0.00 | 0.00 | 0.00 | 84 | 1013.7 |
| 20260507020420 | 47 | 304 | 2.0 | 6.0 | 0.00 | 0.00 | 0.00 | 85 | 1013.6 |
| 20260507015918 | 47 | 343 | 2.0 | 4.0 | 0.00 | 0.00 | 0.00 | 85 | 1013.8 |
| 20260507015416 | 47 | 320 | 2.0 | 4.0 | 0.00 | 0.00 | 0.00 | 86 | 1013.6 |
| 20260507015145 | 47 | 344 | 2.0 | 4.0 | 0.00 | 0.00 | 0.00 | 86 | 1013.6 |
| 20260507014417 | 47 | 9 | 2.0 | 4.0 | 0.00 | 0.00 | 0.00 | 86 | 1013.6 |
| 20260507013912 | 47 | 355 | 2.0 | 5.0 | 0.00 | 0.00 | 0.00 | 86 | 1013.5 |
| 20260507013412 | 47 | 341 | 2.0 | 5.0 | 0.00 | 0.00 | 0.00 | 86 | 1013.5 |
| 20260507012911 | 47 | 5 | 2.0 | 4.0 | 0.00 | 0.00 | 0.00 | 85 | 1013.6 |
| 20260507012422 | 47 | 326 | 2.0 | 4.0 | 0.00 | 0.00 | 0.00 | 85 | 1013.5 |
| 20260507011909 | 48 | 346 | 2.0 | 4.0 | 0.00 | 0.00 | 0.00 | 85 | 1013.5 |
| 20260507011416 | 48 | 355 | 3.0 | 4.0 | 0.00 | 0.00 | 0.00 | 85 | 1013.5 |
| 20260507010903 | 48 | 344 | 2.0 | 4.0 | 0.00 | 0.00 | 0.00 | 84 | 1013.4 |
| 20260507010402 | 48 | 0 | 3.0 | 4.0 | 0.00 | 0.00 | 0.00 | 85 | 1013.2 |
| 20260507005900 | 48 | 330 | 3.0 | 4.0 | 0.00 | 0.00 | 0.00 | 84 | 1013.3 |
| 20260507005402 | 49 | 333 | 2.0 | 4.0 | 0.00 | 0.00 | 0.00 | 84 | 1013.3 |
| 20260507005132 | 49 | 10 | 3.0 | 5.0 | 0.00 | 0.00 | 0.00 | 84 | 1013.2 |
| 20260507004400 | 49 | 355 | 3.0 | 5.0 | 0.00 | 0.00 | 0.00 | 84 | 1013.2 |
| 20260507003858 | 49 | 330 | 2.0 | 5.0 | 0.00 | 0.00 | 0.00 | 84 | 1013.2 |
| 20260507003358 | 49 | 319 | 2.0 | 4.0 | 0.00 | 0.00 | 0.00 | 83 | 1013.1 |
| 20260507002901 | 49 | 5 | 3.0 | 4.0 | 0.00 | 0.00 | 0.00 | 83 | 1013.1 |
| 20260507002358 | 49 | 348 | 3.0 | 4.0 | 0.00 | 0.00 | 0.00 | 82 | 1013.1 |
| 20260507001859 | 49 | 5 | 2.0 | 4.0 | 0.00 | 0.00 | 0.00 | 82 | 1013.0 |
| 20260507001358 | 49 | 5 | 2.0 | 4.0 | 0.00 | 0.00 | 0.00 | 82 | 1013.1 |
| 20260507000858 | 49 | 338 | 2.0 | 4.0 | 0.00 | 0.00 | 0.00 | 82 | 1013.0 |
| 20260507000405 | 50 | 355 | 2.0 | 4.0 | 0.00 | 0.00 | 0.00 | 82 | 1013.1 |
| 20260506235852 | 50 | 16 | 2.0 | 5.0 | 0.00 | 0.00 | 0.00 | 81 | 1013.0 |
| 20260506235352 | 50 | 328 | 3.0 | 5.0 | 0.00 | 0.00 | 0.00 | 81 | 1013.0 |
| 20260506234851 | 50 | 355 | 3.0 | 5.0 | 0.00 | 0.00 | 0.00 | 81 | 1013.0 |
| 20260506234352 | 50 | 331 | 3.0 | 5.0 | 0.00 | 0.00 | 0.00 | 81 | 1013.0 |
| 20260506234122 | 50 | 348 | 3.0 | 5.0 | 0.00 | 0.00 | 0.00 | 81 | 1012.9 |
| 20260506233350 | 50 | 10 | 3.0 | 6.0 | 0.00 | 0.00 | 0.00 | 81 | 1012.8 |
| 20260506232852 | 50 | 15 | 2.0 | 6.0 | 0.00 | 0.00 | 0.00 | 80 | 1012.8 |
| 20260506232348 | 51 | 339 | 2.0 | 5.0 | 0.00 | 0.00 | 0.00 | 79 | 1012.8 |
| 20260506231848 | 51 | 351 | 2.0 | 5.0 | 0.00 | 0.00 | 0.00 | 79 | 1012.7 |
| 20260506231346 | 51 | 347 | 2.0 | 4.0 | 0.00 | 0.00 | 0.00 | 78 | 1012.8 |
| 20260506230846 | 51 | 0 | 2.0 | 5.0 | 0.00 | 0.00 | 0.00 | 78 | 1012.8 |
| 20260506230346 | 51 | 343 | 3.0 | 5.0 | 0.00 | 0.00 | 0.00 | 77 | 1012.7 |
| 20260506225845 | 51 | 5 | 3.0 | 5.0 | 0.00 | 0.00 | 0.00 | 77 | 1012.7 |
| 20260506225341 | 51 | 355 | 3.0 | 6.0 | 0.00 | 0.00 | 0.00 | 77 | 1012.6 |
| 20260506224834 | 51 | 9 | 3.0 | 6.0 | 0.00 | 0.00 | 0.00 | 77 | 1012.5 |
| 20260506224334 | 51 | 317 | 3.0 | 5.0 | 0.00 | 0.00 | 0.00 | 77 | 1012.5 |
| 20260506223835 | 51 | 346 | 3.0 | 5.0 | 0.00 | 0.00 | 0.00 | 77 | 1012.6 |
| 20260506223334 | 51 | 337 | 3.0 | 5.0 | 0.00 | 0.00 | 0.00 | 77 | 1012.5 |
| 20260506222847 | 51 | 14 | 3.0 | 5.0 | 0.00 | 0.00 | 0.00 | 77 | 1012.6 |
| 20260506222334 | 52 | 319 | 3.0 | 5.0 | 0.00 | 0.00 | 0.00 | 76 | 1012.6 |
| 20260506221835 | 52 | 308 | 4.0 | 8.0 | 0.00 | 0.00 | 0.00 | 76 | 1012.6 |
| 20260506221334 | 52 | 36 | 4.0 | 8.0 | 0.00 | 0.00 | 0.00 | 76 | 1012.6 |
| 20260506220833 | 52 | 26 | 4.0 | 8.0 | 0.00 | 0.00 | 0.00 | 78 | 1012.5 |
| 20260506220332 | 52 | 355 | 4.0 | 8.0 | 0.00 | 0.00 | 0.00 | 78 | 1012.5 |
| 20260506220104 | 52 | 336 | 3.0 | 6.0 | 0.00 | 0.00 | 0.00 | 79 | 1012.5 |
| 20260506215332 | 52 | 340 | 3.0 | 5.0 | 0.00 | 0.00 | 0.00 | 79 | 1012.3 |
| 20260506214828 | 52 | 346 | 3.0 | 5.0 | 0.00 | 0.00 | 0.00 | 79 | 1012.4 |
| 20260506214329 | 52 | 349 | 3.0 | 7.0 | 0.00 | 0.00 | 0.00 | 79 | 1012.4 |
| 20260506214057 | 52 | 15 | 3.0 | 7.0 | 0.00 | 0.00 | 0.00 | 79 | 1012.4 |
| 20260506213326 | 52 | 324 | 3.0 | 5.0 | 0.00 | 0.00 | 0.00 | 79 | 1012.3 |
| 20260506212826 | 52 | 342 | 3.0 | 6.0 | 0.00 | 0.00 | 0.00 | 79 | 1012.3 |
| 20260506212329 | 52 | 325 | 3.0 | 6.0 | 0.00 | 0.00 | 0.00 | 79 | 1012.2 |
| 20260506211826 | 52 | 313 | 2.0 | 5.0 | 0.00 | 0.00 | 0.00 | 78 | 1012.2 |
| 20260506211325 | 52 | 319 | 3.0 | 5.0 | 0.00 | 0.00 | 0.00 | 78 | 1012.1 |
| 20260506210826 | 53 | 326 | 3.0 | 5.0 | 0.00 | 0.00 | 0.00 | 78 | 1012.1 |
| 20260506210329 | 53 | 355 | 3.0 | 5.0 | 0.00 | 0.00 | 0.00 | 77 | 1012.1 |
| 20260506205823 | 53 | 331 | 3.0 | 7.0 | 0.00 | 0.00 | 0.00 | 77 | 1012.1 |
| 20260506205323 | 53 | 336 | 3.0 | 7.0 | 0.00 | 0.00 | 0.00 | 76 | 1012.1 |
| 20260506204823 | 53 | 322 | 3.0 | 6.0 | 0.00 | 0.00 | 0.00 | 75 | 1012.1 |
| 20260506204323 | 53 | 331 | 3.0 | 6.0 | 0.00 | 0.00 | 0.00 | 75 | 1012.0 |
| 20260506203312 | 53 | 19 | 4.0 | 8.0 | 0.00 | 0.00 | 0.00 | 73 | 1012.0 |
| 20260506202811 | 53 | 10 | 4.0 | 8.0 | 0.00 | 0.00 | 0.00 | 72 | 1012.0 |
| 20260506202309 | 53 | 346 | 3.0 | 6.0 | 0.00 | 0.00 | 0.00 | 72 | 1011.9 |
| 20260506201542 | 53 | 10 | 2.0 | 5.0 | 0.00 | 0.00 | 0.00 | 72 | 1011.8 |
| 20260506200810 | 53 | 296 | 2.0 | 3.0 | 0.00 | 0.00 | 0.00 | 72 | 1011.8 |
| 20260506200310 | 54 | 309 | 2.0 | 3.0 | 0.00 | 0.00 | 0.00 | 71 | 1011.8 |
| 20260506195810 | 54 | 309 | 1.0 | 4.0 | 0.00 | 0.00 | 0.00 | 70 | 1011.8 |
| 20260506195311 | 54 | 311 | 0.0 | 4.0 | 0.00 | 0.00 | 0.00 | 69 | 1011.7 |
| 20260506194809 | 54 | 313 | 0.0 | 0.0 | 0.00 | 0.00 | 0.00 | 69 | 1011.6 |
| 20260506194311 | 54 | 355 | 0.0 | 0.0 | 0.00 | 0.00 | 0.00 | 67 | 1011.6 |
| 20260506193306 | 54 | 333 | 2.0 | 5.0 | 0.00 | 0.00 | 0.00 | 67 | 1011.7 |
| 20260506192807 | 54 | 26 | 2.0 | 5.0 | 0.00 | 0.00 | 0.00 | 68 | 1011.7 |
| 20260506191808 | 54 | 34 | 1.0 | 3.0 | 0.00 | 0.00 | 0.00 | 67 | 1011.5 |
| 20260506191531 | 54 | 35 | 1.0 | 3.0 | 0.00 | 0.00 | 0.00 | 67 | 1011.5 |
| 20260506190801 | 54 | 355 | 1.0 | 4.0 | 0.00 | 0.00 | 0.00 | 67 | 1011.3 |
| 20260506190301 | 54 | 19 | 1.0 | 4.0 | 0.00 | 0.00 | 0.00 | 67 | 1011.3 |
| 20260506185801 | 54 | 37 | 0.0 | 3.0 | 0.00 | 0.00 | 0.00 | 67 | 1011.1 |
| 20260506185531 | 54 | 5 | 1.0 | 3.0 | 0.00 | 0.00 | 0.00 | 67 | 1011.2 |
| 20260506184801 | 54 | 0 | 1.0 | 3.0 | 0.00 | 0.00 | 0.00 | 66 | 1011.1 |
| 20260506184302 | 54 | 65 | 2.0 | 3.0 | 0.00 | 0.00 | 0.00 | 66 | 1011.0 |
| 20260506183801 | 54 | 44 | 2.0 | 4.0 | 0.00 | 0.00 | 0.00 | 66 | 1010.9 |
| 20260506183301 | 54 | 74 | 2.0 | 4.0 | 0.00 | 0.00 | 0.00 | 65 | 1010.9 |
| 20260506182255 | 54 | 55 | 1.0 | 3.0 | 0.00 | 0.00 | 0.00 | 65 | 1010.8 |
| 20260506181754 | 55 | 58 | 1.0 | 3.0 | 0.00 | 0.00 | 0.00 | 65 | 1010.7 |
| 20260506181254 | 55 | 101 | 1.0 | 3.0 | 0.00 | 0.00 | 0.00 | 64 | 1010.7 |
| 20260506180750 | 55 | 64 | 1.0 | 3.0 | 0.00 | 0.00 | 0.00 | 64 | 1010.6 |
| 20260506180251 | 55 | 76 | 1.0 | 3.0 | 0.00 | 0.00 | 0.00 | 64 | 1010.6 |
| 20260506175750 | 55 | 81 | 1.0 | 3.0 | 0.00 | 0.00 | 0.00 | 63 | 1010.6 |
| 20260506175251 | 55 | 69 | 2.0 | 5.0 | 0.00 | 0.00 | 0.00 | 64 | 1010.4 |
| 20260506174747 | 55 | 55 | 2.0 | 5.0 | 0.00 | 0.00 | 0.00 | 63 | 1010.4 |
| 20260506174247 | 55 | 49 | 2.0 | 7.0 | 0.00 | 0.00 | 0.00 | 63 | 1010.4 |
| 20260506173749 | 55 | 58 | 3.0 | 7.0 | 0.00 | 0.00 | 0.00 | 63 | 1010.3 |
| 20260506173247 | 55 | 90 | 2.0 | 7.0 | 0.00 | 0.00 | 0.00 | 63 | 1010.2 |
| 20260506172747 | 55 | 61 | 2.0 | 7.0 | 0.00 | 0.00 | 0.00 | 62 | 1010.2 |
| 20260506172248 | 55 | 103 | 2.0 | 7.0 | 0.00 | 0.00 | 0.00 | 62 | 1010.1 |
| 20260506171740 | 55 | 76 | 3.0 | 7.0 | 0.00 | 0.00 | 0.00 | 62 | 1010.0 |
| 20260506171239 | 55 | 61 | 3.0 | 8.0 | 0.00 | 0.00 | 0.00 | 62 | 1010.1 |
| 20260506170740 | 55 | 71 | 3.0 | 8.0 | 0.00 | 0.00 | 0.00 | 62 | 1010.0 |
| 20260506170238 | 55 | 95 | 3.0 | 8.0 | 0.00 | 0.00 | 0.00 | 62 | 1010.0 |
| 20260506165737 | 55 | 93 | 3.0 | 8.0 | 0.00 | 0.00 | 0.00 | 62 | 1010.0 |
| 20260506165238 | 55 | 99 | 4.0 | 9.0 | 0.00 | 0.00 | 0.00 | 62 | 1010.0 |
| 20260506164736 | 55 | 81 | 4.0 | 9.0 | 0.00 | 0.00 | 0.00 | 62 | 1010.0 |
| 20260506164239 | 55 | 93 | 4.0 | 10.0 | 0.00 | 0.00 | 0.00 | 62 | 1010.0 |
| 20260506163737 | 55 | 136 | 5.0 | 10.0 | 0.00 | 0.00 | 0.00 | 62 | 1010.1 |
| 20260506163508 | 56 | 17 | 6.0 | 11.0 | 0.00 | 0.00 | 0.00 | 61 | 1010.1 |
| 20260506162738 | 56 | 67 | 5.0 | 11.0 | 0.00 | 0.00 | 0.00 | 61 | 1010.1 |
| 20260506162237 | 56 | 99 | 5.0 | 12.0 | 0.00 | 0.00 | 0.00 | 61 | 1010.1 |
| 20260506161737 | 56 | 70 | 5.0 | 12.0 | 0.00 | 0.00 | 0.00 | 61 | 1010.0 |
| 20260506161237 | 56 | 80 | 6.0 | 12.0 | 0.00 | 0.00 | 0.00 | 60 | 1010.1 |
| 20260506160737 | 56 | 96 | 5.0 | 12.0 | 0.00 | 0.00 | 0.00 | 60 | 1010.1 |
| 20260506160237 | 56 | 96 | 4.0 | 12.0 | 0.00 | 0.00 | 0.00 | 60 | 1010.1 |
| 20260506155734 | 56 | 73 | 5.0 | 10.0 | 0.00 | 0.00 | 0.00 | 60 | 1010.1 |
| 20260506155233 | 56 | 50 | 5.0 | 10.0 | 0.00 | 0.00 | 0.00 | 59 | 1010.1 |
| 20260506154732 | 56 | 38 | 4.0 | 11.0 | 0.00 | 0.00 | 0.00 | 60 | 1010.0 |
| 20260506154233 | 56 | 66 | 4.0 | 11.0 | 0.00 | 0.00 | 0.00 | 60 | 1010.0 |
| 20260506153733 | 56 | 84 | 4.0 | 12.0 | 0.00 | 0.00 | 0.00 | 61 | 1010.1 |
| 20260506153232 | 55 | 36 | 5.0 | 12.0 | 0.00 | 0.00 | 0.00 | 60 | 1010.0 |
| 20260506152734 | 55 | 97 | 6.0 | 11.0 | 0.00 | 0.00 | 0.00 | 60 | 1010.0 |
| 20260506152233 | 55 | 59 | 7.0 | 12.0 | 0.00 | 0.00 | 0.00 | 59 | 1010.0 |
| 20260506151733 | 55 | 339 | 6.0 | 12.0 | 0.00 | 0.00 | 0.00 | 60 | 1009.9 |
| 20260506151232 | 55 | 28 | 6.0 | 12.0 | 0.00 | 0.00 | 0.00 | 61 | 1010.0 |
| 20260506150735 | 55 | 104 | 5.0 | 12.0 | 0.00 | 0.00 | 0.00 | 61 | 1009.9 |
| 20260506150229 | 55 | 20 | 5.0 | 12.0 | 0.00 | 0.00 | 0.00 | 61 | 1009.9 |
| 20260506145727 | 56 | 72 | 6.0 | 12.0 | 0.00 | 0.00 | 0.00 | 60 | 1009.9 |
| 20260506145457 | 56 | 84 | 6.0 | 12.0 | 0.00 | 0.00 | 0.00 | 61 | 1009.9 |
| 20260506144500 | 56 | 98 | 6.0 | 14.0 | 0.00 | 0.00 | 0.00 | 61 | 1009.9 |
| 20260506143728 | 56 | 64 | 7.0 | 14.0 | 0.00 | 0.00 | 0.00 | 60 | 1009.9 |
| 20260506143227 | 56 | 65 | 7.0 | 16.0 | 0.00 | 0.00 | 0.00 | 59 | 1009.8 |
| 20260506142724 | 56 | 35 | 8.0 | 16.0 | 0.00 | 0.00 | 0.00 | 59 | 1009.8 |
| 20260506142225 | 56 | 73 | 9.0 | 16.0 | 0.00 | 0.00 | 0.00 | 58 | 1009.8 |
| 20260506141724 | 57 | 55 | 8.0 | 17.0 | 0.00 | 0.00 | 0.00 | 57 | 1009.7 |
| 20260506141456 | 57 | 338 | 7.0 | 17.0 | 0.00 | 0.00 | 0.00 | 58 | 1009.8 |
| 20260506140724 | 57 | 13 | 8.0 | 15.0 | 0.00 | 0.00 | 0.00 | 57 | 1009.7 |
| 20260506140222 | 57 | 53 | 8.0 | 15.0 | 0.00 | 0.00 | 0.00 | 56 | 1009.8 |
| 20260506135722 | 57 | 86 | 7.0 | 16.0 | 0.00 | 0.00 | 0.00 | 56 | 1009.7 |
| 20260506135222 | 57 | 69 | 7.0 | 16.0 | 0.00 | 0.00 | 0.00 | 56 | 1009.7 |
| 20260506134720 | 57 | 80 | 7.0 | 16.0 | 0.00 | 0.00 | 0.00 | 54 | 1009.6 |
| 20260506134222 | 57 | 81 | 7.0 | 16.0 | 0.00 | 0.00 | 0.00 | 54 | 1009.6 |
| 20260506133721 | 58 | 51 | 7.0 | 16.0 | 0.00 | 0.00 | 0.00 | 54 | 1009.5 |
| 20260506133221 | 58 | 64 | 6.0 | 16.0 | 0.00 | 0.00 | 0.00 | 54 | 1009.4 |
| 20260506132722 | 58 | 19 | 6.0 | 15.0 | 0.00 | 0.00 | 0.00 | 55 | 1009.5 |
| 20260506132222 | 58 | 27 | 7.0 | 15.0 | 0.00 | 0.00 | 0.00 | 53 | 1009.5 |
| 20260506131721 | 58 | 10 | 5.0 | 13.0 | 0.00 | 0.00 | 0.00 | 55 | 1009.4 |
| 20260506131220 | 58 | 355 | 4.0 | 11.0 | 0.00 | 0.00 | 0.00 | 57 | 1009.4 |
| 20260506130721 | 58 | 13 | 4.0 | 12.0 | 0.00 | 0.00 | 0.00 | 59 | 1009.4 |
| 20260506130452 | 57 | 311 | 5.0 | 12.0 | 0.00 | 0.00 | 0.00 | 60 | 1009.3 |
| 20260506125714 | 57 | 332 | 6.0 | 12.0 | 0.00 | 0.00 | 0.00 | 60 | 1009.2 |
| 20260506125207 | 57 | 74 | 6.0 | 12.0 | 0.00 | 0.00 | 0.00 | 60 | 1009.4 |
| 20260506124707 | 56 | 315 | 6.0 | 12.0 | 0.00 | 0.00 | 0.00 | 65 | 1009.3 |
| 20260506124208 | 56 | 317 | 6.0 | 12.0 | 0.00 | 0.00 | 0.00 | 66 | 1009.1 |
| 20260506123707 | 56 | 320 | 5.0 | 10.0 | 0.00 | 0.00 | 0.00 | 67 | 1009.2 |
| 20260506123207 | 56 | 307 | 5.0 | 10.0 | 0.00 | 0.00 | 0.00 | 68 | 1009.2 |
| 20260506122708 | 55 | 344 | 5.0 | 10.0 | 0.00 | 0.00 | 0.00 | 68 | 1009.1 |
| 20260506122207 | 56 | 15 | 5.0 | 10.0 | 0.00 | 0.00 | 0.00 | 68 | 1009.1 |
| 20260506121708 | 56 | 323 | 6.0 | 11.0 | 0.00 | 0.00 | 0.00 | 69 | 1009.2 |
| 20260506121202 | 56 | 5 | 6.0 | 11.0 | 0.00 | 0.00 | 0.00 | 69 | 1009.1 |
| 20260506120935 | 56 | 336 | 6.0 | 13.0 | 0.00 | 0.00 | 0.00 | 70 | 1009.1 |
| 20260506120204 | 56 | 350 | 6.0 | 13.0 | 0.00 | 0.00 | 0.00 | 70 | 1009.1 |
| 20260506115702 | 56 | 339 | 6.0 | 12.0 | 0.00 | 0.00 | 0.00 | 71 | 1009.0 |
| 20260506115156 | 56 | 355 | 7.0 | 12.0 | 0.00 | 0.00 | 0.00 | 71 | 1009.0 |
| 20260506114415 | 56 | 313 | 8.0 | 14.0 | 0.00 | 0.00 | 0.00 | 70 | 1009.1 |
| 20260506113644 | 56 | 306 | 8.0 | 14.0 | 0.00 | 0.00 | 0.00 | 70 | 1009.1 |
| 20260506113417 | 56 | 332 | 8.0 | 14.0 | 0.00 | 0.00 | 0.00 | 71 | 1009.1 |
| 20260506112647 | 56 | 5 | 7.0 | 13.0 | 0.00 | 0.00 | 0.00 | 71 | 1009.1 |
| 20260506112144 | 57 | 336 | 6.0 | 12.0 | 0.00 | 0.00 | 0.00 | 69 | 1009.1 |
| 20260506111645 | 57 | 347 | 6.0 | 12.0 | 0.00 | 0.00 | 0.00 | 69 | 1009.1 |
| 20260506111159 | 57 | 328 | 7.0 | 13.0 | 0.00 | 0.00 | 0.00 | 70 | 1009.0 |
| 20260506110644 | 58 | 329 | 8.0 | 13.0 | 0.00 | 0.00 | 0.00 | 67 | 1009.0 |
| 20260506110144 | 58 | 5 | 8.0 | 16.0 | 0.00 | 0.00 | 0.00 | 66 | 1008.9 |
| 20260506105644 | 58 | 344 | 9.0 | 16.0 | 0.00 | 0.00 | 0.00 | 66 | 1009.0 |
| 20260506105147 | 59 | 350 | 8.0 | 15.0 | 0.00 | 0.00 | 0.00 | 62 | 1008.9 |
| 20260506104643 | 60 | 331 | 7.0 | 14.0 | 0.00 | 0.00 | 0.00 | 60 | 1008.9 |
| 20260506104145 | 60 | 34 | 7.0 | 12.0 | 0.00 | 0.00 | 0.00 | 59 | 1008.8 |
| 20260506103640 | 60 | 333 | 7.0 | 16.0 | 0.00 | 0.00 | 0.00 | 54 | 1008.8 |
| 20260506103140 | 60 | 323 | 8.0 | 18.0 | 0.00 | 0.00 | 0.00 | 54 | 1008.8 |
| 20260506102911 | 60 | 5 | 8.0 | 18.0 | 0.00 | 0.00 | 0.00 | 55 | 1008.8 |
| 20260506102140 | 60 | 22 | 8.0 | 15.0 | 0.00 | 0.00 | 0.00 | 57 | 1008.7 |
| 20260506101640 | 60 | 90 | 9.0 | 14.0 | 0.00 | 0.00 | 0.00 | 57 | 1008.8 |
| 20260506101142 | 60 | 63 | 8.0 | 14.0 | 0.00 | 0.00 | 0.00 | 57 | 1008.8 |
| 20260506100640 | 60 | 21 | 7.0 | 14.0 | 0.00 | 0.00 | 0.00 | 60 | 1008.8 |
| 20260506100154 | 59 | 311 | 7.0 | 15.0 | 0.00 | 0.00 | 0.00 | 61 | 1008.7 |
| 20260506095910 | 60 | 351 | 7.0 | 15.0 | 0.00 | 0.00 | 0.00 | 60 | 1008.6 |
| 20260506095411 | 60 | 5 | 8.0 | 16.0 | 0.00 | 0.00 | 0.00 | 60 | 1008.7 |
| 20260506094640 | 59 | 5 | 7.0 | 16.0 | 0.00 | 0.00 | 0.00 | 61 | 1008.6 |
| 20260506094139 | 59 | 38 | 7.0 | 17.0 | 0.00 | 0.00 | 0.00 | 61 | 1008.7 |
| 20260506093636 | 59 | 38 | 7.0 | 17.0 | 0.00 | 0.00 | 0.00 | 62 | 1008.6 |
| 20260506093136 | 58 | 67 | 7.0 | 18.0 | 0.00 | 0.00 | 0.00 | 64 | 1008.6 |
| 20260506092635 | 58 | 74 | 7.0 | 18.0 | 0.00 | 0.00 | 0.00 | 63 | 1008.6 |
| 20260506092134 | 58 | 28 | 6.0 | 14.0 | 0.00 | 0.00 | 0.00 | 66 | 1008.6 |
| 20260506091636 | 58 | 355 | 7.0 | 13.0 | 0.00 | 0.00 | 0.00 | 65 | 1008.5 |
| 20260506091134 | 58 | 318 | 8.0 | 18.0 | 0.00 | 0.00 | 0.00 | 65 | 1008.5 |
| 20260506090634 | 58 | 21 | 8.0 | 18.0 | 0.00 | 0.00 | 0.00 | 64 | 1008.4 |
| 20260506090147 | 57 | 22 | 8.0 | 15.0 | 0.00 | 0.00 | 0.00 | 66 | 1008.4 |
| 20260506085905 | 57 | 24 | 8.0 | 16.0 | 0.00 | 0.00 | 0.00 | 66 | 1008.4 |
| 20260506085135 | 57 | 328 | 8.0 | 16.0 | 0.00 | 0.00 | 0.00 | 67 | 1008.3 |
| 20260506084635 | 57 | 334 | 7.0 | 17.0 | 0.00 | 0.00 | 0.00 | 67 | 1008.4 |
| 20260506084135 | 57 | 13 | 7.0 | 17.0 | 0.00 | 0.00 | 0.00 | 68 | 1008.4 |
| 20260506083632 | 57 | 342 | 8.0 | 14.0 | 0.00 | 0.00 | 0.00 | 69 | 1008.3 |
| 20260506083402 | 57 | 28 | 8.0 | 14.0 | 0.00 | 0.00 | 0.00 | 69 | 1008.3 |
| 20260506082631 | 57 | 317 | 7.0 | 13.0 | 0.00 | 0.00 | 0.00 | 71 | 1008.3 |
| 20260506082131 | 56 | 355 | 8.0 | 14.0 | 0.00 | 0.00 | 0.00 | 71 | 1008.3 |
| 20260506081131 | 56 | 0 | 7.0 | 14.0 | 0.00 | 0.00 | 0.00 | 77 | 1008.2 |
| 20260506080630 | 56 | 5 | 8.0 | 14.0 | 0.00 | 0.00 | 0.00 | 79 | 1008.2 |
| 20260506080412 | 56 | 0 | 8.0 | 15.0 | 0.00 | 0.00 | 0.00 | 79 | 1008.2 |
| 20260506073125 | 53 | 9 | 7.0 | 13.0 | 0.00 | 0.00 | 0.00 | 82 | 1008.2 |
| 20260506072625 | 53 | 0 | 7.0 | 14.0 | 0.00 | 0.00 | 0.00 | 83 | 1008.3 |
| 20260506071627 | 53 | 5 | 6.0 | 13.0 | 0.00 | 0.00 | 0.00 | 83 | 1008.2 |
| 20260506071127 | 52 | 331 | 7.0 | 13.0 | 0.00 | 0.00 | 0.00 | 84 | 1008.2 |
| 20260506070628 | 52 | 0 | 7.0 | 13.0 | 0.00 | 0.00 | 0.00 | 83 | 1008.2 |
| 20260506070125 | 52 | 333 | 7.0 | 13.0 | 0.00 | 0.00 | 0.00 | 83 | 1008.1 |